Flag for Germany Weather past 2 weeks in Offenburg, Baden-Württemberg, Germany

Now
97 °F

Passing clouds.


Feels Like: 96 °F
Forecast: 68 / 96 °F
Wind: 7 mph from South

Location: Lahr - CAN-AFB

Current Time: Jul 4, 2015 at 2:17:13 PM

Latest Report: Jul 4, 2015 at 1:50 PM


Visibility: N/A

Pressure: 30.12 "Hg

Humidity: 27%

Dew point: 57 °F

Location of OffenburgLocation

Historic Weather in Offenburg — Graph

°F

Offenburg temperature yesterday

Maximum temperature yesterday: 97 °F (at 3:50 PM)
Minimum temperature yesterday: 77 °F (at 7:50 AM)
Average temperature yesterday: 90 °F

Past Weeks' High & Low Weather Summary

 TemperatureHumidityPressure
High99 °F (Jul 2, 5:20 PM)94% (Jun 21, 8:50 AM)30.21 "Hg (Jun 21, 8:50 AM)
Low52 °F (Jun 25, 6:50 AM)28% (Jul 2, 3:20 PM)29.74 "Hg (Jun 22, 7:50 PM)
Average74 °F53%30.10 "Hg
* Reported Jun 19 12:20 PM — Jul 4 12:50 PM, Offenburg, Weather by CustomWeather, © 2015

Note: Actual official high and low records may vary slightly from our data, if they occured in-between our weather recording intervals... More about our weather records

Advertising

Offenburg weather history for previous 24 hours

 ConditionsComfort  
Time TempWeatherWind HumidityBarometerVisibility
12:50 PM
Sat, Jul 4
93 °FSunny.9 mph32%30.12 "Hg10 mi
12:20 PM93 °FPassing clouds.8 mph32%30.12 "HgN/A
11:50 AM91 °FPassing clouds.9 mph34%30.12 "HgN/A
11:20 AM90 °FSunny.10 mph38%30.12 "Hg10 mi
10:50 AM88 °FSunny.10 mph43%30.12 "Hg10 mi
10:20 AM86 °FPassing clouds.8 mph49%30.15 "HgN/A
9:50 AM84 °FPassing clouds.5 mph51%30.15 "HgN/A
9:20 AM82 °FPassing clouds.5 mph51%30.15 "HgN/A
8:20 AM81 °FSunny.2 mph51%30.12 "Hg10 mi
7:50 AM77 °FSunny.2 mph57%30.12 "Hg10 mi
7:50 PM
Fri, Jul 3
90 °FPartly sunny.3 mph36%30.12 "HgN/A
7:20 PM90 °FPartly sunny.6 mph33%30.15 "HgN/A
6:50 PM90 °FScattered showers. Partly sunny.7 mph38%30.15 "HgN/A
6:20 PM91 °FPartly sunny.8 mph38%30.15 "HgN/A
5:50 PM91 °FPartly sunny.3 mph41%30.15 "HgN/A
5:20 PM91 °FPartly sunny.5 mph41%30.15 "HgN/A
4:50 PM91 °FPassing clouds.8 mph38%30.15 "HgN/A
4:20 PM97 °FPassing clouds.8 mph32%30.15 "HgN/A
3:50 PM97 °FPassing clouds.7 mph30%30.15 "HgN/A
3:20 PM95 °FPassing clouds.7 mph30%30.15 "HgN/A
2:50 PM95 °FPassing clouds.6 mph32%30.15 "HgN/A
2:20 PM95 °FPassing clouds.5 mph32%30.18 "HgN/A
Weather by CustomWeather, © 2015

See weather overviewHow to use our weather pages